N4NVD-13 Weather Reports


Display with metric or nautical units.
time (UTC)temp
F
wind
direction
speed
MPH
gust
MPH
rain 1hr
in
rain 24hr
in
rain mn
in
humidity
%
barometer
mb
20260906003802 85 90 6.0 11.0 0.00 0.00 0.00 73 1011.3
20260906003257 85 86 5.0 7.0 0.00 0.00 0.00 72 1011.3
20260906002752 86 101 5.0 11.0 0.00 0.00 0.00 71 1011.2
20260906002247 86 84 2.0 9.0 0.00 0.00 0.00 70 1011.1
20260906001743 87 101 5.0 7.0 0.00 0.00 0.00 69 1011.2
20260906001237 87 117 0.0 6.0 0.00 0.00 0.00 68 1011.3
20260906000733 87 128 4.0 11.0 0.00 0.00 0.00 68 1011.1
20260906000234 88 102 5.0 12.0 0.00 0.00 0.00 67 1011.1
20260905235727 89 111 1.0 7.0 0.00 0.00 0.00 66 1010.8
20260905235227 90 95 6.0 10.0 0.00 0.00 0.00 65 1010.7
20260905234723 91 85 9.0 12.0 0.00 0.00 0.00 65 1010.8
20260905234218 91 82 2.0 5.0 0.00 0.00 0.00 65 1010.6
20260905233713 91 66 0.0 3.0 0.00 0.00 0.00 65 1010.7
20260905233213 91 111 1.0 2.0 0.00 0.00 0.00 64 1010.6
20260905232708 91 98 2.0 4.0 0.00 0.00 0.00 63 1010.7
20260905232203 92 99 1.0 3.0 0.00 0.00 0.00 62 1010.5
20260905231659 92 82 0.0 4.0 0.00 0.00 0.00 61 1010.4
20260905231154 92 96 0.0 3.0 0.00 0.00 0.00 61 1010.5
20260905230650 92 132 2.0 5.0 0.00 0.00 0.00 60 1010.5
20260905230148 93 112 2.0 4.0 0.00 0.00 0.00 58 1010.4
20260905225648 93 60 0.0 4.0 0.00 0.00 0.00 57 1010.3
20260905225148 93 66 3.0 6.0 0.00 0.00 0.00 55 1010.4
20260905224647 93 151 1.0 9.0 0.00 0.00 0.00 55 1010.4
20260905224142 93 84 0.0 10.0 0.00 0.00 0.00 55 1010.5
20260905223639 93 103 2.0 5.0 0.00 0.00 0.00 56 1010.4
20260905223136 93 60 3.0 7.0 0.00 0.00 0.00 55 1010.5
20260905222631 94 56 4.0 7.0 0.00 0.00 0.00 54 1010.4
20260905222126 94 37 5.0 6.0 0.00 0.00 0.00 54 1010.4
20260905221621 94 24 6.0 8.0 0.00 0.00 0.00 53 1010.4
20260905221118 94 41 5.0 7.0 0.00 0.00 0.00 53 1010.4
20260905220613 94 59 3.0 8.0 0.00 0.00 0.00 53 1010.5
20260905220109 94 67 2.0 6.0 0.00 0.00 0.00 53 1010.3
20260905215609 95 100 2.0 5.0 0.00 0.00 0.00 54 1010.4
20260905215105 95 76 3.0 8.0 0.00 0.00 0.00 55 1010.6
20260905214601 95 97 3.0 4.0 0.00 0.00 0.00 55 1010.4
20260905214100 96 160 0.0 4.0 0.00 0.00 0.00 53 1010.4
20260905213556 95 74 1.0 7.0 0.00 0.00 0.00 53 1010.7
20260905213051 96 45 3.0 7.0 0.00 0.00 0.00 52 1010.5
20260905212551 98 75 1.0 3.0 0.00 0.00 0.00 51 1010.2
20260905212045 98 186 5.0 6.0 0.00 0.00 0.00 51 1010.5
20260905211540 98 337 1.0 2.0 0.00 0.00 0.00 49 1010.6
20260905211036 96 39 3.0 6.0 0.00 0.00 0.00 53 1010.5
20260905210531 97 83 3.0 4.0 0.00 0.00 0.00 51 1010.6
20260905210026 95 294 1.0 5.0 0.00 0.00 0.00 55 1010.8
20260905205525 95 303 4.0 5.0 0.00 0.00 0.00 57 1010.9
20260905205024 95 0 2.0 4.0 0.00 0.00 0.00 60 1010.7
20260905204520 93 357 0.0 3.0 0.00 0.00 0.00 59 1011.0
20260905204015 93 15 1.0 4.0 0.00 0.00 0.00 61 1011.0
20260905203509 94 357 2.0 4.0 0.00 0.00 0.00 59 1011.1
20260905203005 93 17 3.0 6.0 0.00 0.00 0.00 60 1011.5
20260905202500 93 48 3.0 5.0 0.00 0.00 0.00 60 1011.2
20260905201955 93 351 4.0 5.0 0.00 0.00 0.00 60 1011.5
20260905201451 93 0 1.0 3.0 0.00 0.00 0.00 60 1011.2
20260905200950 93 49 4.0 6.0 0.00 0.00 0.00 62 1011.3
20260905200446 93 0 1.0 4.0 0.00 0.00 0.00 59 1011.4
20260905195944 94 9 5.0 7.0 0.00 0.00 0.00 58 1011.5
20260905195440 93 12 0.0 5.0 0.00 0.00 0.00 61 1011.6
20260905194935 95 30 3.0 8.0 0.00 0.00 0.00 59 1011.7
20260905194434 93 343 2.0 7.0 0.00 0.00 0.00 61 1011.8
20260905193929 92 49 2.0 6.0 0.00 0.00 0.00 63 1011.9
20260905193424 92 49 6.0 8.0 0.00 0.00 0.00 62 1012.0
20260905192919 92 352 4.0 6.0 0.00 0.00 0.00 63 1012.0
20260905192415 93 56 3.0 8.0 0.00 0.00 0.00 62 1012.1
20260905191915 91 0 0.0 5.0 0.00 0.00 0.00 65 1012.4
20260905191414 91 70 9.0 11.0 0.00 0.00 0.00 65 1012.5
20260905190908 91 68 8.0 9.0 0.00 0.00 0.00 65 1012.4
20260905190400 93 85 4.0 8.0 0.00 0.00 0.00 60 1012.5
20260905185859 94 120 3.0 3.0 0.00 0.00 0.00 62 1012.6
20260905185354 92 68 2.0 3.0 0.00 0.00 0.00 61 1012.9
20260905184848 92 203 2.0 4.0 0.00 0.00 0.00 62 1013.2
20260905184348 90 270 1.0 3.0 0.00 0.00 0.00 68 1013.3
20260905183846 87 90 0.0 4.0 0.00 0.00 0.00 74 1013.3
20260905183342 86 257 3.0 5.0 0.00 0.00 0.00 75 1013.6
20260905182842 86 227 3.0 6.0 0.00 0.00 0.00 76 1013.4
20260905182341 86 212 2.0 5.0 0.00 0.00 0.00 75 1013.3
20260905181832 86 101 0.0 9.0 0.00 0.00 0.00 75 1013.2
20260905181331 86 143 5.0 5.0 0.00 0.00 0.00 76 1013.6
20260905180830 86 118 4.0 9.0 0.00 0.00 0.00 76 1013.6
20260905180325 89 105 3.0 7.0 0.00 0.00 0.00 68 1013.7
20260905175820 89 144 2.0 6.0 0.00 0.00 0.00 68 1013.7
20260905175314 92 144 0.0 4.0 0.00 0.00 0.00 63 1013.6
20260905174810 92 221 0.0 3.0 0.00 0.00 0.00 61 1013.6
20260905174306 93 98 0.0 2.0 0.00 0.00 0.00 62 1013.8
20260905173801 92 156 4.0 4.0 0.00 0.00 0.00 63 1013.6
20260905173257 93 152 6.0 8.0 0.00 0.00 0.00 64 1013.6
20260905172757 91 225 4.0 10.0 0.00 0.00 0.00 67 1013.9
20260905172255 92 158 3.0 7.0 0.00 0.00 0.00 66 1013.9
20260905171752 93 222 6.0 6.0 0.00 0.00 0.00 65 1014.0
20260905171248 95 219 5.0 7.0 0.00 0.00 0.00 61 1013.9
20260905170744 93 235 5.0 8.0 0.00 0.00 0.00 64 1014.0
20260905170240 92 141 0.0 5.0 0.00 0.00 0.00 66 1013.8
20260905165738 93 212 3.0 6.0 0.00 0.00 0.00 67 1014.2
20260905165234 93 7 0.0 3.0 0.00 0.00 0.00 68 1014.0
20260905164734 92 262 1.0 5.0 0.00 0.00 0.00 68 1014.0
20260905164228 92 341 3.0 5.0 0.00 0.00 0.00 69 1014.1
20260905163725 91 229 4.0 5.0 0.00 0.00 0.00 70 1014.1
20260905163221 92 233 4.0 6.0 0.00 0.00 0.00 70 1014.4
20260905162716 91 298 3.0 9.0 0.00 0.00 0.00 71 1014.1
20260905162216 91 355 2.0 4.0 0.00 0.00 0.00 74 1014.3
20260905161711 89 283 1.0 6.0 0.00 0.00 0.00 74 1014.3
20260905161209 88 286 0.0 5.0 0.00 0.00 0.00 75 1014.1
20260905160702 88 0 0.0 3.0 0.00 0.00 0.00 79 1014.1
20260905160202 87 234 3.0 5.0 0.00 0.00 0.00 80 1014.1
20260905155656 87 246 5.0 7.0 0.00 0.00 0.00 80 1014.2
20260905155155 88 228 5.0 9.0 0.00 0.00 0.00 81 1014.1
20260905154650 90 255 8.0 9.0 0.00 0.00 0.00 78 1014.1
20260905154146 90 227 5.0 11.0 0.00 0.00 0.00 77 1014.3
20260905153641 90 270 0.0 5.0 0.00 0.00 0.00 79 1014.1
20260905153137 89 222 3.0 4.0 0.00 0.00 0.00 81 1014.3
20260905152632 88 235 3.0 6.0 0.00 0.00 0.00 82 1014.3
20260905152126 89 0 0.0 2.0 0.00 0.00 0.00 81 1014.3
20260905151621 88 242 3.0 3.0 0.00 0.00 0.00 82 1014.3
20260905151117 86 262 0.0 2.0 0.00 0.00 0.00 85 1014.3
20260905150612 86 266 3.0 4.0 0.00 0.00 0.00 86 1014.3
20260905150110 87 225 2.0 4.0 0.00 0.00 0.00 86 1014.3
20260905145609 86 195 0.0 1.0 0.00 0.00 0.00 87 1014.3
20260905145108 86 157 2.0 2.0 0.00 0.00 0.00 87 1014.1
20260905144603 86 132 2.0 2.0 0.00 0.00 0.00 87 1014.3
20260905144102 86 240 4.0 5.0 0.00 0.00 0.00 88 1014.2
20260905143601 87 155 3.0 3.0 0.00 0.00 0.00 85 1014.1
20260905143057 88 262 0.0 3.0 0.00 0.00 0.00 85 1014.3
20260905142555 87 127 0.0 3.0 0.00 0.00 0.00 86 1014.1
20260905142050 88 340 0.0 3.0 0.00 0.00 0.00 86 1014.4
20260905141550 88 54 0.0 1.0 0.00 0.00 0.00 85 1014.1
20260905141047 87 220 0.0 2.0 0.00 0.00 0.00 85 1014.4
20260905140542 86 279 0.0 1.0 0.00 0.00 0.00 87 1014.2
20260905140041 85 172 0.0 3.0 0.00 0.00 0.00 88 1014.2
20260905135536 86 24 2.0 2.0 0.00 0.00 0.00 90 1014.0
20260905135031 84 151 0.0 2.0 0.00 0.00 0.00 90 1014.2
20260905134526 84 124 2.0 2.0 0.00 0.00 0.00 90 1013.9
20260905134024 83 151 0.0 1.0 0.00 0.00 0.00 93 1014.2
20260905133520 82 66 0.0 2.0 0.00 0.00 0.00 95 1014.2
20260905133019 81 123 0.0 2.0 0.00 0.00 0.00 96 1014.0
20260905132514 80 60 2.0 3.0 0.00 0.00 0.00 98 1014.1
20260905132009 81 54 1.0 3.0 0.00 0.00 0.00 99 1014.0
20260905131504 80 99 0.0 2.0 0.00 0.00 0.00 99 1014.1
20260905131000 79 75 0.0 0.0 0.00 0.00 0.00 99 1013.9
20260905130459 78 0 0.0 0.0 0.00 0.00 0.00 99 1013.9
20260905125958 78 0 0.0 0.0 0.00 0.00 0.00 99 1013.7
20260905125453 77 0 0.0 0.0 0.00 0.00 0.00 99 1013.7
20260905124949 76 270 0.0 0.0 0.00 0.00 0.00 99 1013.7
20260905124445 75 270 0.0 0.0 0.00 0.00 0.00 99 1013.5
20260905123940 74 352 0.0 0.0 0.00 0.00 0.00 99 1013.7
20260905123436 73 270 0.0 0.0 0.00 0.00 0.00 99 1013.6
20260905122931 73 286 0.0 0.0 0.00 0.00 0.00 99 1013.5
20260905122431 72 286 0.0 0.0 0.00 0.00 0.00 99 1013.4
20260905121927 72 286 0.0 0.0 0.00 0.00 0.00 99 1013.4
20260905121422 72 286 0.0 0.0 0.00 0.00 0.00 99 1013.5
20260905120916 72 286 0.0 0.0 0.00 0.00 0.00 99 1013.3
20260905120415 72 286 0.0 0.0 0.00 0.00 0.00 99 1013.3
20260905115905 72 286 0.0 0.0 0.00 0.00 0.00 99 1013.3
20260905115404 72 286 0.0 0.0 0.00 0.00 0.00 99 1013.4
20260905114859 72 286 0.0 0.0 0.00 0.00 0.00 99 1013.2
20260905114359 72 286 0.0 0.0 0.00 0.00 0.00 99 1013.2
20260905113858 73 286 0.0 1.0 0.00 0.00 0.00 99 1013.2
20260905113354 73 279 0.0 0.0 0.00 0.00 0.00 99 1012.9
20260905112849 73 270 0.0 0.0 0.00 0.00 0.00 99 1013.0
20260905112344 73 270 0.0 0.0 0.00 0.00 0.00 99 1013.0
20260905111839 73 270 0.0 0.0 0.00 0.00 0.00 99 1012.7
20260905111339 73 270 0.0 0.0 0.00 0.00 0.00 99 1012.9
20260905110838 73 270 0.0 0.0 0.00 0.00 0.00 99 1012.7
20260905110332 73 278 0.0 0.0 0.00 0.00 0.00 99 1012.6
20260905105828 73 278 0.0 1.0 0.00 0.00 0.00 99 1012.9
20260905105327 73 270 0.0 1.0 0.00 0.00 0.00 99 1012.9
20260905104821 73 0 0.0 0.0 0.00 0.00 0.00 99 1012.9
20260905104318 73 0 0.0 0.0 0.00 0.00 0.00 99 1012.7
20260905103817 73 0 0.0 0.0 0.00 0.00 0.00 99 1012.7
20260905103313 73 0 0.0 0.0 0.00 0.00 0.00 99 1012.5
20260905102809 73 0 0.0 0.0 0.00 0.00 0.00 99 1012.6
20260905102306 73 0 0.0 0.0 0.00 0.00 0.00 99 1012.5
20260905101805 73 0 0.0 0.0 0.00 0.00 0.00 99 1012.5
20260905101304 73 0 0.0 0.0 0.00 0.00 0.00 99 1012.6
20260905100758 74 0 0.0 0.0 0.00 0.00 0.00 99 1012.4
20260905100254 74 0 0.0 1.0 0.00 0.00 0.00 99 1012.7
20260905095753 74 23 0.0 2.0 0.00 0.00 0.00 99 1012.5
20260905095247 73 286 0.0 0.0 0.00 0.00 0.00 99 1012.9
20260905094742 74 286 0.0 0.0 0.00 0.00 0.00 99 1012.5
20260905094237 74 286 0.0 0.0 0.00 0.00 0.00 99 1012.6
20260905093731 74 286 0.0 0.0 0.00 0.00 0.00 99 1012.6
20260905093227 74 286 0.0 1.0 0.00 0.00 0.00 99 1012.5
20260905092722 74 8 0.0 0.0 0.00 0.00 0.00 99 1012.5
20260905092217 74 8 0.0 1.0 0.00 0.00 0.00 99 1012.9
20260905091717 75 15 0.0 0.0 0.00 0.00 0.00 99 1012.9
20260905091212 74 23 0.0 0.0 0.00 0.00 0.00 99 1012.6
20260905090711 74 60 0.0 2.0 0.00 0.00 0.00 99 1012.6
20260905090207 74 90 0.0 0.0 0.00 0.00 0.00 99 1012.5
20260905085706 74 157 0.0 0.0 0.00 0.00 0.00 99 1012.7
20260905085201 74 157 0.0 0.0 0.00 0.00 0.00 99 1013.0
20260905084700 74 157 0.0 0.0 0.00 0.00 0.00 99 1012.7
20260905084155 75 157 0.0 0.0 0.00 0.00 0.00 99 1012.9
20260905083649 75 157 0.0 0.0 0.00 0.00 0.00 99 1012.2
20260905083146 75 7 0.0 0.0 0.00 0.00 0.00 99 1012.6
20260905082642 75 7 0.0 0.0 0.00 0.00 0.00 99 1012.5
20260905082132 75 7 0.0 0.0 0.00 0.00 0.00 99 1012.7
20260905081631 75 7 0.0 1.0 0.00 0.00 0.00 99 1012.9
20260905081126 75 346 1.0 2.0 0.00 0.00 0.00 99 1012.6
20260905080620 75 0 0.0 1.0 0.00 0.00 0.00 99 1012.5
20260905080115 75 0 0.0 1.0 0.00 0.00 0.00 99 1012.5
20260905075614 75 90 0.0 0.0 0.00 0.00 0.00 99 1012.4
20260905075114 76 90 0.0 2.0 0.00 0.00 0.00 99 1012.3
20260905074613 76 15 0.0 1.0 0.00 0.00 0.00 99 1012.4
20260905074109 76 20 0.0 0.0 0.00 0.00 0.00 99 1012.6
20260905073605 76 74 0.0 1.0 0.00 0.00 0.00 99 1012.6
20260905073100 76 83 0.0 0.0 0.00 0.00 0.00 99 1012.6
20260905072559 75 261 0.0 0.0 0.00 0.00 0.00 99 1012.6
20260905072055 76 261 0.0 0.0 0.00 0.00 0.00 99 1012.5
20260905071552 76 261 0.0 0.0 0.00 0.00 0.00 99 1012.5
20260905071046 76 261 0.0 0.0 0.00 0.00 0.00 99 1012.9
20260905070541 76 261 0.0 0.0 0.00 0.00 0.00 99 1012.6
20260905070038 76 270 0.0 0.0 0.00 0.00 0.00 99 1013.0
20260905065535 76 254 0.0 0.0 0.00 0.00 0.00 98 1013.2
20260905065031 76 254 0.0 0.0 0.00 0.00 0.00 98 1013.1
20260905064530 77 254 0.0 0.0 0.00 0.00 0.00 98 1013.4
20260905064026 76 254 0.0 0.0 0.00 0.00 0.00 98 1013.1
20260905063525 77 254 0.0 0.0 0.00 0.00 0.00 97 1013.1
20260905063021 77 254 0.0 0.0 0.00 0.00 0.00 97 1013.2
20260905062520 77 254 0.0 1.0 0.00 0.00 0.00 97 1013.3
20260905062016 77 261 0.0 0.0 0.00 0.00 0.00 96 1013.2
20260905061511 78 262 0.0 0.0 0.00 0.00 0.00 96 1013.0
20260905061009 78 262 0.0 0.0 0.00 0.00 0.00 95 1013.2
20260905060506 78 262 0.0 1.0 0.00 0.00 0.00 95 1013.3
20260905060001 78 188 0.0 0.0 0.00 0.00 0.00 94 1013.2
20260905055500 78 234 1.0 1.0 0.00 0.00 0.00 94 1013.2
20260905054954 78 98 0.0 0.0 0.00 0.00 0.00 94 1013.2
20260905054450 78 145 0.0 2.0 0.00 0.00 0.00 94 1013.1
20260905053945 78 29 0.0 0.0 0.00 0.00 0.00 94 1013.2
20260905053440 78 29 0.0 0.0 0.00 0.00 0.00 94 1013.3
20260905052936 78 151 0.0 0.0 0.00 0.00 0.00 94 1013.3
20260905052435 79 151 0.0 0.0 0.00 0.00 0.00 94 1013.3
20260905051935 79 151 0.0 2.0 0.00 0.00 0.00 94 1013.2
20260905051430 78 0 0.0 0.0 0.00 0.00 0.00 94 1013.1
20260905050928 78 15 0.0 0.0 0.00 0.00 0.00 93 1013.2
20260905050423 79 15 0.0 0.0 0.00 0.00 0.00 93 1013.3
20260905045918 79 15 0.0 0.0 0.00 0.00 0.00 93 1013.2
20260905045408 79 74 0.0 1.0 0.00 0.00 0.00 92 1013.2
20260905044903 79 69 0.0 2.0 0.00 0.00 0.00 92 1013.2
20260905044358 79 90 0.0 3.0 0.00 0.00 0.00 92 1013.2
20260905043857 79 97 0.0 1.0 0.00 0.00 0.00 92 1013.2
20260905043352 79 114 0.0 0.0 0.00 0.00 0.00 92 1013.1
20260905042847 79 114 0.0 0.0 0.00 0.00 0.00 92 1013.2
20260905042346 79 148 2.0 2.0 0.00 0.00 0.00 92 1013.3
20260905041841 79 148 0.0 2.0 0.00 0.00 0.00 92 1013.5
20260905041337 79 270 0.0 0.0 0.00 0.00 0.00 92 1013.3
20260905040832 79 135 0.0 2.0 0.00 0.00 0.00 92 1013.4
20260905040331 79 114 0.0 1.0 0.00 0.00 0.00 92 1013.2
20260905035831 79 99 0.0 1.0 0.00 0.00 0.00 92 1013.2
20260905035326 79 106 0.0 2.0 0.00 0.00 0.00 92 1013.1
20260905034823 79 106 1.0 2.0 0.00 0.00 0.00 93 1013.2
20260905034318 78 8 0.0 0.0 0.00 0.00 0.00 93 1013.3
20260905033816 78 8 0.0 0.0 0.00 0.00 0.00 93 1013.4
20260905033312 78 8 0.0 0.0 0.00 0.00 0.00 92 1013.5
20260905032811 78 8 0.0 0.0 0.00 0.00 0.00 92 1013.4
20260905032307 79 8 0.0 0.0 0.00 0.00 0.00 92 1013.4
20260905031756 79 8 0.0 0.0 0.00 0.00 0.00 91 1013.4
20260905031253 79 8 0.0 0.0 0.00 0.00 0.00 91 1013.3
20260905030747 79 8 0.0 0.0 0.00 0.00 0.00 91 1013.3
20260905030242 80 8 0.0 0.0 0.00 0.00 0.00 90 1013.2
20260905025737 80 8 0.0 0.0 0.00 0.00 0.00 89 1013.0
20260905025232 80 8 0.0 0.0 0.00 0.00 0.00 87 1013.2
20260905024728 80 8 0.0 0.0 0.00 0.00 0.00 87 1012.9
20260905024224 80 8 0.0 0.0 0.00 0.00 0.00 87 1013.0
20260905023724 80 8 0.0 0.0 0.00 0.00 0.00 86 1013.1
20260905023219 81 8 0.0 1.0 0.00 0.00 0.00 86 1013.0
20260905022717 81 66 0.0 0.0 0.00 0.00 0.00 85 1013.0
20260905022213 81 66 0.0 0.0 0.00 0.00 0.00 84 1012.6
20260905021707 82 66 0.0 0.0 0.00 0.00 0.00 84 1012.6
20260905021203 82 66 0.0 1.0 0.00 0.00 0.00 83 1012.5
20260905020657 82 8 0.0 1.0 0.00 0.00 0.00 83 1012.6
20260905020152 82 66 0.0 0.0 0.00 0.00 0.00 81 1012.5
20260905015650 83 66 0.0 0.0 0.00 0.00 0.00 81 1012.4
20260905015146 83 66 0.0 1.0 0.00 0.00 0.00 80 1012.3
20260905014644 84 82 1.0 1.0 0.00 0.00 0.00 79 1012.1
20260905014140 84 90 0.0 2.0 0.00 0.00 0.00 78 1012.3
20260905013637 84 111 0.0 1.0 0.00 0.00 0.00 78 1012.2
20260905013132 84 74 0.0 2.0 0.00 0.00 0.00 77 1012.3
20260905012627 85 106 0.0 2.0 0.00 0.00 0.00 76 1012.3
20260905012123 85 109 2.0 2.0 0.00 0.00 0.00 76 1012.2
20260905011619 86 154 0.0 2.0 0.00 0.00 0.00 75 1011.9
20260905011115 86 98 0.0 3.0 0.00 0.00 0.00 75 1012.0
20260905010615 86 81 0.0 2.0 0.00 0.00 0.00 75 1012.2
20260905010111 86 79 0.0 2.0 0.00 0.00 0.00 75 1011.9
20260905005606 87 82 1.0 3.0 0.00 0.00 0.00 74 1011.7
20260905005101 87 101 0.0 3.0 0.00 0.00 0.00 73 1011.8
20260905004556 87 84 0.0 3.0 0.00 0.00 0.00 72 1011.8